Wind_Speed
7 3 6 8 1 11 14 3 5 5 4 4 7 7 7 8 9 10 10 14 16 15 14 16 14 15 16 18 19 17 15 13 11 10 14 10 9 11 13 14 18 27 16 18
8 3 8 2 4 8 5 5 3 5 6 5 7 11 8 11 12 12 13 15 17 16 16 17 17 17 17 16 17 17 17 15 12 11 11 13 13 10 11 15 23 28 22 20
3 1 2 1 5 8 8 9 7 8 7 12 8 11 6 10 12 14 14 14 15 16 16 17 19 18 16 17 17 14 15 17 17 17 17 16 16 17 22 23 23 25 24 22
11 8 4 4 5 6 5 3 4 10 12 4 10 6 9 10 10 13 14 15 14 17 18 18 19 19 19 18 18 16 14 16 18 17 20 21 19 16 15 17 19 26 23 23
9 8 7 4 6 5 1 2 3 6 13 11 13 9 7 13 12 8 11 14 15 16 18 19 19 20 18 18 19 19 16 16 17 20 22 23 23 22 21 24 26 32 25 25
14 8 9 4 5 5 7 7 9 12 16 18 16 18 6 5 9 9 5 7 14 17 18 19 19 20 20 18 19 19 26 18 17 19 20 25 26 27 27 30 34 36 32 30
15 18 15 13 12 9 8 14 20 6 10 9 5 15 5 4 4 4 2 3 7 14 20 20 19 19 19 18 18 19 27 25 23 23 25 26 27 30 32 33 35 41 42 37
11 14 16 17 14 17 10 17 13 11 12 9 18 4 5 5 2 4 7 6 5 8 15 20 18 18 18 17 28 30 31 20 21 22 24 26 28 31 33 34 33 31 34 33
21 22 10 9 12 13 16 23 20 24 25 27 25 12 4 10 6 3 8 11 10 8 15 17 17 20 22 34 36 30 26 24 25 26 26 26 29 31 30 31 37 34 5 8
16 23 18 17 14 15 17 20 19 20 15 15 24 19 13 4 9 6 6 10 9 7 10 24 32 33 37 39 28 27 29 30 31 31 31 37 29 21 33 37 30 38 30 28
17 19 21 18 21 17 17 13 15 20 19 14 12 4 4 5 3 2 9 10 10 10 10 18 31 35 41 35 30 31 31 27 26 27 21 16 13 12 16 25 27 23 17 5
11 17 20 21 18 16 17 19 18 21 18 23 20 22 0 2 9 10 12 15 17 16 16 16 20 28 34 36 34 28 28 24 17 11 9 11 12 13 11 5 5 7 9 13
7 13 21 23 19 22 18 17 24 25 25 30 24 21 6 8 10 10 11 13 15 18 18 16 16 17 19 21 20 16 15 15 6 6 8 10 12 11 8 7 12 12 12 12
16 19 22 25 24 20 17 16 17 17 21 25 25 23 7 7 4 7 11 14 15 13 13 12 13 15 16 15 13 12 7 7 8 9 10 11 10 8 9 9 11 11 9 13
14 21 22 25 25 26 27 28 26 29 29 25 26 24 6 5 4 8 10 12 12 13 11 10 9 8 8 7 7 8 9 10 9 9 7 8 6 6 8 7 7 7 6 8
14 23 20 25 25 26 30 32 27 25 23 26 25 24 2 8 5 8 8 8 8 8 5 2 2 2 3 6 9 11 12 13 10 7 5 5 5 7 9 9 11 12 13 13
20 21 19 25 19 22 19 23 25 20 18 10 12 10 7 7 12 10 9 6 5 4 4 5 5 2 4 9 10 10 14 12 9 8 7 8 10 12 14 15 15 17 17 17
21 20 21 23 20 18 11 7 4 12 10 14 12 8 4 3 8 4 4 4 6 7 6 4 7 11 12 11 11 11 10 9 9 11 13 13 15 17 18 19 20 18 16 14
17 17 20 21 20 17 10 8 5 8 8 13 7 5 4 3 4 6 5 7 6 5 6 12 11 9 9 9 9 9 10 10 12 16 18 20 20 17 15 13 14 15 14 14
10 12 15 15 13 14 5 5 7 6 15 7 4 7 7 5 5 17 11 6 8 10 13 9 8 5 8 8 7 9 13 16 17 19 17 16 14 11 13 14 13 13 14 15
12 13 18 18 18 11 4 5 3 8 3 5 6 6 6 6 10 10 3 11 12 12 10 10 8 8 11 11 12 14 19 18 16 13 12 12 12 12 14 15 15 16 16 14
13 14 16 14 14 4 1 2 4 3 3 3 5 5 8 12 11 10 9 12 12 11 12 10 9 11 11 11 14 16 17 15 12 12 12 12 13 13 15 14 12 13 14 15
14 14 8 6 3 2 0 2 5 6 3 3 5 5 7 4 5 8 10 12 13 14 12 10 12 13 11 13 16 17 20 18 15 14 14 15 15 15 15 15 13 14 14 13
12 16 9 5 7 5 5 6 9 6 5 4 4 3 4 5 9 6 8 12 12 10 11 12 13 14 12 15 17 18 24 22 16 16 15 14 13 14 15 15 13 14 11 14
13 7 12 11 12 8 8 7 7 6 7 6 5 4 3 5 9 8 8 6 8 10 13 15 14 15 16 17 18 20 24 20 19 18 15 13 14 14 14 13 11 12 12 13
11 9 6 6 4 4 5 7 8 7 6 6 6 5 3 4 8 10 10 10 11 12 13 14 15 18 19 20 21 22 21 19 17 15 14 12 11 12 13 14 15 15 10 12
Wind_Direction
183 142 195 240 177 235 264 149 215 230 178 244 266 263 256 212 207 210 215 213 209 207 211 212 201 208 211 220 219 218 216 219 224 226 227 224 233 248 236 240 240 240 243 257
191 86 191 141 179 257 249 216 239 215 245 260 259 251 231 219 234 213 220 216 207 208 205 211 216 208 211 241 224 220 220 222 226 233 235 227 217 235 258 242 248 256 244 254
252 45 151 223 252 236 226 203 255 257 253 252 243 240 217 217 221 213 214 218 217 209 208 216 219 218 217 220 241 237 241 242 239 240 241 244 245 233 229 237 248 255 254 259
232 226 247 239 254 258 194 303 205 255 257 228 245 166 194 188 210 217 217 219 216 218 214 217 221 227 222 229 235 247 245 251 250 247 254 253 250 256 269 268 251 247 254 256
249 221 225 251 273 291 299 330 272 258 264 267 209 249 208 165 166 192 210 223 222 221 220 221 227 231 233 229 240 253 256 250 253 250 250 255 259 244 243 250 258 257 257 253
244 220 241 241 277 280 292 289 272 258 259 267 116 289 151 316 121 122 161 218 225 223 225 222 222 225 231 230 232 240 262 257 255 255 255 251 246 248 246 245 252 263 257 253
243 245 248 243 260 257 267 274 273 264 322 338 60 228 180 126 88 109 165 195 227 232 226 225 218 223 227 226 231 234 246 247 239 244 245 252 253 255 255 258 260 269 256 252
263 252 241 246 247 263 277 284 286 262 269 256 185 320 104 172 0 328 336 315 299 278 225 223 226 220 222 223 227 230 234 249 253 256 258 260 263 263 263 263 264 263 230 252
267 264 228 234 245 259 266 252 266 288 278 286 277 249 263 198 171 130 292 303 312 295 195 210 222 223 215 231 234 243 251 256 262 264 268 270 266 265 274 282 279 285 279 237
259 276 261 264 264 256 257 265 284 241 280 298 308 294 318 12 196 159 306 295 292 296 236 216 215 207 227 242 249 249 255 262 271 274 278 300 285 281 278 271 267 261 270 275
251 254 257 256 238 256 237 245 242 268 276 297 297 304 74 178 306 217 292 270 269 285 268 233 225 227 229 239 244 245 254 265 276 285 308 301 320 323 272 270 265 270 298 295
265 257 259 255 255 255 256 268 274 284 271 251 259 271 152 184 269 266 286 287 286 281 266 254 241 238 239 246 253 258 262 268 283 294 290 292 300 283 312 339 290 255 249 268
262 251 261 255 254 251 242 265 261 260 266 268 279 282 209 248 210 243 287 292 290 284 280 269 248 236 238 244 250 262 269 285 280 293 297 295 277 284 296 305 287 253 253 293
244 265 268 279 287 301 288 273 273 283 274 283 277 276 210 161 264 306 295 280 281 275 273 264 256 253 255 263 271 278 255 264 280 280 285 278 279 285 282 277 285 312 283 278
262 266 271 271 276 280 283 279 272 272 272 276 281 290 145 195 253 300 280 276 273 263 263 274 273 274 272 268 261 266 279 286 285 287 275 274 270 272 268 282 290 288 276 282
267 269 270 272 271 268 267 270 271 267 266 266 266 267 261 156 286 306 295 289 253 259 271 318 329 288 328 336 326 316 302 298 298 288 270 241 245 266 273 280 284 288 289 290
267 271 274 275 276 276 267 263 258 247 249 276 273 215 218 295 313 309 287 252 230 199 191 158 145 164 306 311 298 293 303 305 288 280 263 273 284 286 288 289 290 288 289 290
267 264 261 270 271 263 276 267 269 236 241 246 246 268 268 274 311 264 257 228 193 180 176 189 300 304 296 302 304 299 290 286 273 282 285 284 283 284 287 290 291 292 291 294
257 260 254 249 250 261 233 252 248 256 268 235 219 226 175 253 202 231 188 174 179 210 258 301 305 303 303 295 292 288 282 275 285 284 285 287 286 286 290 291 287 292 299 299
252 249 246 250 268 282 286 215 246 278 280 233 187 186 177 155 258 198 155 276 246 269 290 296 307 314 319 290 287 294 292 295 292 289 282 277 269 282 287 286 287 285 287 289
246 233 233 236 252 274 166 178 237 254 200 174 196 199 211 217 231 264 199 211 253 270 285 297 294 302 314 298 296 297 301 302 295 285 274 271 274 276 283 286 287 286 288 290
256 238 254 258 258 256 175 226 248 210 164 186 190 204 198 233 249 249 242 261 269 268 281 283 272 293 300 286 298 309 319 319 304 293 285 278 276 284 294 297 299 295 290 290
248 254 260 234 258 13 57 176 261 230 212 193 200 213 221 226 249 240 254 267 267 276 269 262 277 294 289 291 309 312 321 322 311 309 297 292 294 299 299 295 292 289 291 292
246 243 251 251 224 240 238 248 275 264 209 185 185 178 201 241 240 231 228 267 270 260 258 266 279 285 278 290 307 306 315 316 307 306 302 295 294 299 299 301 300 294 307 310
254 220 220 244 255 247 256 235 232 196 185 184 198 200 241 216 242 224 241 260 256 255 255 263 271 272 279 286 295 296 306 308 310 310 306 304 303 300 299 298 303 297 287 279
235 231 224 220 188 213 208 202 193 193 197 199 214 246 263 245 219 235 236 248 271 268 260 258 262 266 273 277 285 296 301 308 307 301 299 298 287 274 275 279 290 305 301 291
Height
3194 3195 3192 3191 3191 3193 3185 3191 3193 3194 3194 3196 3196 3194 3195 3196 3198 3199 3200 3200 3201 3203 3205 3205 3206 3208 3208 3205 3207 3209 3210 3212 3214 3215 3217 3219 3223 3225 3226 3228 3228 3224 3224 3225
3196 3188 3191 3192 3193 3193 3193 3191 3193 3193 3194 3194 3193 3192 3192 3193 3194 3196 3197 3197 3198 3201 3204 3204 3205 3206 3207 3205 3205 3207 3209 3210 3212 3214 3216 3218 3221 3225 3225 3227 3223 3220 3220 3220
3193 3193 3193 3193 3192 3191 3189 3189 3192 3192 3190 3188 3188 3184 3187 3188 3190 3192 3195 3196 3197 3199 3202 3203 3203 3204 3205 3206 3204 3205 3207 3209 3210 3212 3213 3214 3216 3218 3219 3219 3219 3216 3216 3217
3193 3193 3193 3192 3191 3190 3185 3182 3188 3189 3187 3184 3183 3184 3180 3181 3185 3188 3191 3194 3196 3197 3199 3201 3201 3202 3204 3205 3205 3203 3204 3206 3208 3209 3210 3211 3214 3215 3215 3215 3216 3211 3211 3212
3192 3193 3192 3192 3192 3190 3187 3186 3187 3186 3182 3177 3179 3175 3176 3173 3176 3182 3187 3190 3192 3195 3196 3198 3200 3200 3202 3204 3204 3203 3201 3203 3204 3205 3207 3208 3209 3212 3213 3213 3204 3204 3206 3206
3191 3190 3192 3192 3192 3191 3189 3188 3186 3183 3178 3172 3175 3175 3172 3168 3179 3176 3183 3187 3189 3191 3193 3195 3197 3199 3199 3201 3203 3203 3199 3200 3201 3202 3202 3203 3204 3203 3203 3204 3202 3199 3201 3200
3188 3189 3189 3190 3190 3189 3190 3185 3177 3177 3181 3173 3176 3178 3169 3172 3175 3176 3180 3183 3186 3188 3190 3192 3194 3197 3198 3199 3200 3201 3196 3194 3194 3195 3195 3196 3198 3198 3199 3199 3196 3190 3191 3196
3185 3186 3184 3186 3188 3188 3188 3186 3181 3184 3166 3164 3170 3184 3169 3173 3173 3173 3175 3178 3180 3181 3187 3190 3192 3194 3196 3197 3189 3190 3191 3191 3194 3194 3194 3194 3194 3193 3193 3192 3191 3184 3155 3174
3178 3178 3178 3181 3185 3187 3185 3183 3181 3176 3170 3164 3160 3164 3160 3165 3170 3169 3173 3175 3176 3178 3179 3188 3192 3191 3189 3183 3185 3187 3188 3189 3189 3189 3190 3192 3189 3189 3189 3188 3185 3184 3179 3176
3179 3178 3178 3179 3181 3183 3183 3182 3179 3173 3171 3168 3163 3160 3165 3166 3162 3166 3170 3174 3175 3175 3176 3177 3178 3181 3177 3177 3184 3185 3184 3184 3183 3185 3184 3183 3181 3179 3178 3178 3174 3172 3174 3175
3180 3179 3178 3178 3176 3178 3178 3178 3178 3176 3173 3166 3163 3161 3164 3168 3166 3167 3169 3172 3174 3174 3174 3175 3176 3177 3175 3175 3177 3178 3179 3179 3179 3180 3178 3175 3174 3173 3174 3170 3168 3168 3167 3169
3178 3176 3172 3172 3172 3172 3172 3172 3172 3169 3168 3166 3166 3163 3161 3162 3164 3165 3168 3171 3171 3171 3171 3171 3172 3171 3171 3172 3174 3175 3175 3174 3174 3174 3174 3173 3172 3174 3170 3166 3167 3166 3166 3167
3176 3174 3170 3167 3168 3166 3167 3170 3170 3169 3167 3164 3162 3160 3158 3159 3161 3163 3166 3168 3168 3168 3168 3168 3168 3168 3168 3169 3169 3169 3169 3170 3170 3170 3170 3170 3170 3169 3168 3167 3165 3164 3165 3165
3174 3174 3172 3168 3164 3166 3168 3169 3168 3166 3165 3161 3157 3157 3157 3160 3160 3161 3161 3163 3164 3164 3164 3164 3165 3166 3166 3165 3166 3166 3167 3168 3168 3168 3167 3167 3166 3164 3164 3163 3163 3162 3162 3162
3172 3170 3169 3166 3166 3165 3164 3165 3166 3165 3164 3162 3159 3158 3156 3159 3158 3159 3159 3159 3159 3160 3161 3161 3162 3163 3164 3164 3165 3166 3165 3166 3165 3164 3163 3163 3163 3163 3163 3162 3161 3161 3161 3161
3167 3165 3165 3163 3163 3162 3160 3160 3160 3159 3159 3159 3159 3158 3153 3155 3155 3157 3157 3157 3157 3158 3159 3161 3162 3163 3164 3165 3165 3166 3165 3164 3163 3162 3162 3162 3161 3161 3160 3160 3160 3159 3159 3158
3164 3161 3161 3157 3157 3155 3152 3153 3152 3153 3154 3154 3157 3146 3143 3150 3153 3153 3154 3154 3155 3157 3158 3159 3161 3162 3162 3162 3162 3161 3162 3161 3161 3160 3160 3159 3159 3158 3157 3156 3155 3154 3153 3151
3158 3158 3158 3155 3154 3149 3147 3148 3147 3149 3150 3151 3150 3150 3153 3150 3150 3151 3151 3152 3153 3155 3157 3159 3160 3160 3159 3159 3159 3159 3159 3158 3158 3158 3157 3156 3156 3155 3153 3151 3151 3150 3148 3147
3153 3153 3151 3150 3146 3145 3144 3147 3149 3149 3150 3144 3146 3151 3150 3151 3151 3151 3153 3156 3156 3156 3156 3156 3156 3156 3156 3157 3157 3157 3157 3156 3156 3155 3153 3152 3151 3150 3149 3148 3147 3147 3146 3145
3150 3150 3150 3146 3144 3142 3142 3144 3145 3147 3149 3146 3147 3151 3151 3151 3154 3145 3151 3157 3155 3157 3154 3153 3154 3154 3155 3155 3154 3155 3155 3154 3153 3152 3150 3149 3148 3146 3146 3146 3145 3144 3143 3141
3144 3146 3144 3142 3141 3140 3140 3143 3145 3148 3151 3148 3149 3151 3152 3152 3151 3148 3149 3154 3155 3154 3151 3151 3152 3152 3152 3152 3152 3152 3151 3150 3148 3147 3146 3146 3145 3144 3144 3143 3142 3141 3139 3137
3143 3143 3138 3137 3137 3138 3142 3143 3145 3145 3145 3147 3148 3149 3150 3148 3149 3150 3150 3150 3150 3149 3149 3149 3150 3150 3150 3150 3150 3149 3148 3146 3144 3144 3143 3142 3142 3141 3140 3138 3137 3136 3135 3133
3142 3142 3140 3143 3140 3140 3142 3141 3142 3144 3146 3146 3147 3147 3148 3147 3146 3147 3147 3146 3146 3147 3147 3147 3148 3147 3147 3147 3147 3146 3144 3143 3141 3140 3139 3138 3137 3136 3136 3134 3133 3131 3131 3129
3138 3137 3139 3140 3140 3140 3141 3139 3140 3142 3144 3145 3145 3145 3145 3146 3145 3145 3144 3143 3143 3143 3144 3145 3145 3145 3145 3144 3144 3143 3141 3140 3139 3137 3135 3134 3133 3132 3131 3130 3128 3128 3127 3127
3133 3134 3136 3137 3137 3138 3138 3139 3139 3140 3142 3143 3143 3143 3143 3143 3142 3142 3140 3140 3141 3142 3142 3143 3143 3142 3142 3142 3141 3140 3139 3136 3135 3133 3132 3131 3130 3129 3127 3126 3125 3125 3124 3123
3131 3132 3135 3134 3135 3137 3136 3137 3137 3138 3139 3141 3141 3141 3140 3140 3141 3140 3139 3138 3138 3139 3139 3139 3140 3139 3139 3139 3138 3137 3135 3133 3132 3130 3129 3128 3128 3127 3127 3125 3123 3121 3121 3119